Flag for Burkina Faso Weather past 2 weeks in Koudougou, Burkina Faso

Now
99 °F

Passing clouds.


Feels Like: 100 °F
Forecast: N/A
Wind: 6 mph from North

Location: Ouagadougou Airport

Current Time: May 4, 2015 at 6:10:53 PM

Latest Report: May 4, 2015 at 5:00 PM


Visibility: N/A

Pressure: 29.80 "Hg

Humidity: 31%

Dew point: 63 °F

Location of KoudougouLocation

Historic Weather in Koudougou — Graph

°F

Koudougou temperature yesterday

Maximum temperature yesterday: 104 °F (at 1:00 PM)
Minimum temperature yesterday: 90 °F (at 5:00 AM)
Average temperature yesterday: 96 °F

Past Weeks' High & Low Weather Summary

 TemperatureHumidityPressure
High108 °F (Apr 22, 2:00 PM)52% (May 1, 7:00 AM)29.95 "Hg (May 1, 7:00 AM)
Low75 °F (Apr 23, 6:00 AM)7% (Apr 19, 4:00 PM)29.71 "Hg (May 2, 4:00 PM)
Average93 °F26%29.84 "Hg
* Reported Apr 19 4:00 PM — May 4 4:00 PM, Koudougou, Weather by CustomWeather, © 2015

Note: Actual official high and low records may vary slightly from our data, if they occured in-between our weather recording intervals... More about our weather records

Advertising

Koudougou weather history for previous 24 hours

 ConditionsComfort  
Time TempWeatherWind HumidityBarometerVisibility
4:00 PM
Mon, May 4
99 °FPassing clouds.7 mph33%29.77 "HgN/A
3:00 PM99 °FPassing clouds.8 mph31%29.80 "HgN/A
2:00 PM97 °FPassing clouds.10 mph34%29.80 "HgN/A
1:00 PM97 °FPassing clouds.10 mph34%29.83 "HgN/A
12:00 PM95 °FPassing clouds.10 mph36%29.86 "HgN/A
11:00 AM93 °FPassing clouds.10 mph41%29.89 "HgN/A
10:00 AM90 °FClear.10 mph46%29.89 "Hg5 mi
9:00 AM88 °FClear.12 mph49%29.92 "Hg5 mi
8:00 AM84 °FClear.13 mph51%29.89 "Hg5 mi
7:00 AM84 °FClear.12 mph51%29.86 "Hg5 mi
6:00 AM84 °FClear.15 mph51%29.86 "Hg5 mi
5:00 AM86 °FPassing clouds.13 mph49%29.83 "HgN/A
4:00 AM86 °FPassing clouds.12 mph52%29.80 "HgN/A
3:00 AM88 °FPassing clouds.10 mph40%29.80 "HgN/A
2:00 AM88 °FPassing clouds.8 mph38%29.80 "HgN/A
1:00 AM88 °FPassing clouds.3 mph40%29.80 "HgN/A
12:00 AM88 °FPassing clouds.3 mph38%29.80 "HgN/A
11:00 PM
Sun, May 3
90 °FPassing clouds.5 mph36%29.80 "HgN/A
10:00 PM91 °FClear.7 mph32%29.80 "Hg10 mi
9:00 PM93 °FPassing clouds.9 mph32%29.80 "Hg5 mi
8:00 PM97 °FPassing clouds.8 mph28%29.77 "Hg5 mi
7:00 PM99 °FPassing clouds.3 mph25%29.77 "Hg5 mi
6:00 PM100 °FPartly sunny.5 mph25%29.74 "HgN/A
Weather by CustomWeather, © 2015

See weather overviewHow to use our weather pages